Weather History for KS32 - November, 2013

Change the Weather History Date:

Friday, November 1, 2013

  Actual Average (KJMS) Record (KJMS)
Temperature  
Mean Temperature 35 °F 36 °F  
Max Temperature 44 °F 47 °F 77 °F (1904)
Min Temperature 26 °F 26 °F -5 °F (1935)
Degree Days  
Heating Degree Days 30 29  
Month to date heating degree days 29  
Since 1 July heating degree days 996  
Cooling Degree Days 0 0  
Month to date cooling degree days 0  
Year to date cooling degree days 446  
Moisture  
Dew Point 35 °F    
Average Humidity 97    
Maximum Humidity 100    
Minimum Humidity 81    
Precipitation  
Precipitation 0.00 in 0.03 in 0.48 in (1992)
Month to date precipitation 0.03  
Year to date precipitation 17.77  
Sea Level Pressure  
Sea Level Pressure 29.68 in    
Wind  
Wind Speed 8 mph (WNW)    
Max Wind Speed 22 mph    
Max Gust Speed 29 mph    
Visibility 10 miles    
Events Rain    
T = Trace of Precipitation, MM = Missing Value Source: NWS Daily Summary

Daily Weather History Graph

Daily Weather History Graph

Search for Another Location

Airport or City:

Trip Planner

Search our weather history database for the weather conditions in past years. The results will help you decide how hot, cold, wet, or windy it might be!

Date:

Astronomy

Nov. 01, 2013 Rise Set
Actual Time 8:16 AM CDT 6:14 PM CDT
Civil Twilight 7:44 AM CDT 6:46 PM CDT
Nautical Twilight 7:08 AM CDT 7:23 PM CDT
Astronomical Twilight 6:32 AM CDT 7:58 PM CDT
Moon 6:03 AM CDT (11/1) 5:14 PM CDT (11/1)
Length of Visible Light 11h 02m
Length of Day
9h 58m
Waning Crescent, 4% of the Moon is Illuminated
Nov 1
Waning Crescent
Nov 3
New
Nov 9
First Quarter
Nov 17
Full
Nov 25
Last Quarter

Hourly Weather History & Observations

Time (CDT) Temp. Windchill Dew Point Humidity Pressure Visibility Wind Dir Wind Speed Gust Speed Precip Events Conditions
12:15 AM 28.4 °F - 28.4 °F 100% 29.49 in 10.0 mi Calm Calm - N/A   Clear
12:35 AM 28.4 °F 22.2 °F 28.4 °F 100% 29.49 in 10.0 mi West 5.8 mph - N/A   Clear
12:55 AM 28.4 °F 21.2 °F 28.4 °F 100% 29.49 in 10.0 mi WNW 6.9 mph - N/A   Clear
1:15 AM 28.4 °F 19.7 °F 28.4 °F 100% 29.50 in 10.0 mi West 9.2 mph - N/A   Clear
1:35 AM 28.4 °F 20.4 °F 28.4 °F 100% 29.50 in 10.0 mi West 8.1 mph - N/A   Clear
1:55 AM 26.6 °F - 26.6 °F 100% 29.50 in 9.0 mi Calm Calm - N/A   Clear
2:15 AM 26.6 °F 22.6 °F 26.6 °F 100% 29.51 in 10.0 mi WSW 3.5 mph - N/A   Clear
2:35 AM 28.4 °F 23.3 °F 28.4 °F 100% 29.51 in 10.0 mi West 4.6 mph - N/A   Clear
2:55 AM 32.0 °F 27.5 °F 32.0 °F 100% 29.51 in 10.0 mi West 4.6 mph - N/A   Clear
3:15 AM 32.0 °F 25.6 °F 32.0 °F 100% 29.51 in 10.0 mi West 6.9 mph - N/A   Clear
3:35 AM 30.2 °F 23.4 °F 30.2 °F 100% 29.51 in 10.0 mi West 6.9 mph - N/A   Clear
3:55 AM 28.4 °F - 28.4 °F 100% 29.51 in 10.0 mi Calm Calm - N/A   Clear
4:15 AM 28.4 °F 20.4 °F 28.4 °F 100% 29.52 in 10.0 mi West 8.1 mph - N/A   Clear
4:35 AM 32.0 °F 26.4 °F 32.0 °F 100% 29.52 in 10.0 mi NW 5.8 mph - N/A   Clear
4:55 AM 32.0 °F 27.5 °F 32.0 °F 100% 29.52 in 10.0 mi WNW 4.6 mph - N/A   Partly Cloudy
5:15 AM 32.0 °F 24.8 °F 32.0 °F 100% 29.53 in 10.0 mi West 8.1 mph - N/A   Scattered Clouds
5:35 AM 30.2 °F 21.3 °F 30.2 °F 100% 29.53 in 10.0 mi West 10.4 mph - N/A   Partly Cloudy
5:55 AM 32.0 °F 23.6 °F 32.0 °F 100% 29.54 in 10.0 mi West 10.4 mph - N/A   Mostly Cloudy
6:15 AM 32.0 °F 24.2 °F 32.0 °F 100% 29.54 in 10.0 mi West 9.2 mph - N/A   Overcast
6:35 AM 32.0 °F 23.0 °F 32.0 °F 100% 29.55 in 10.0 mi West 11.5 mph - N/A   Overcast
6:55 AM 32.0 °F 24.8 °F 32.0 °F 100% 29.55 in 10.0 mi West 8.1 mph - N/A   Mostly Cloudy
7:15 AM 32.0 °F 24.2 °F 32.0 °F 100% 29.55 in 10.0 mi West 9.2 mph - N/A   Overcast
7:35 AM 33.8 °F 27.0 °F 33.8 °F 100% 29.55 in 10.0 mi WNW 8.1 mph - N/A   Overcast
7:55 AM 35.6 °F 29.2 °F 35.6 °F 100% 29.55 in 10.0 mi WNW 8.1 mph - N/A   Overcast
8:15 AM 37.4 °F 29.8 °F 37.4 °F 100% 29.56 in 10.0 mi West 11.5 mph - N/A   Overcast
8:35 AM 37.4 °F 31.4 °F 37.4 °F 100% 29.57 in 10.0 mi NNW 8.1 mph - N/A Rain Light Rain
8:55 AM 37.4 °F 30.8 °F 37.4 °F 100% 29.58 in 10.0 mi NW 9.2 mph - N/A   Overcast
9:15 AM 37.4 °F 30.8 °F 37.4 °F 100% 29.59 in 10.0 mi WNW 9.2 mph - N/A   Overcast
9:35 AM 39.2 °F 32.5 °F 39.2 °F 100% 29.60 in 10.0 mi WNW 10.4 mph - N/A   Overcast
9:55 AM 39.2 °F 32.5 °F 39.2 °F 100% 29.61 in 3.0 mi NW 10.4 mph - N/A Rain Light Rain
10:15 AM 39.2 °F 33.6 °F 39.2 °F 100% 29.61 in 7.0 mi WNW 8.1 mph 21.9 mph N/A Rain Light Rain
10:35 AM 39.2 °F 33.0 °F 39.2 °F 100% 29.62 in 9.0 mi NW 9.2 mph - N/A Rain Light Rain
10:55 AM 39.2 °F 33.6 °F 39.2 °F 100% 29.62 in 10.0 mi NW 8.1 mph - N/A   Overcast
11:15 AM 41.0 °F 35.2 °F 41.0 °F 100% 29.63 in 10.0 mi NW 9.2 mph - N/A   Overcast
11:35 AM 41.0 °F 33.9 °F 41.0 °F 100% 29.64 in 10.0 mi NNW 12.7 mph - N/A   Overcast
11:55 AM 41.0 °F 33.1 °F 41.0 °F 100% 29.66 in 10.0 mi NNW 15.0 mph 21.9 mph N/A   Mostly Cloudy
12:15 PM 41.0 °F 32.8 °F 41.0 °F 100% 29.67 in 10.0 mi NNW 16.1 mph 20.7 mph N/A   Mostly Cloudy
12:35 PM 42.8 °F 34.3 °F 39.2 °F 87% 29.68 in 10.0 mi NNW 19.6 mph - N/A   Mostly Cloudy
12:55 PM 41.0 °F 32.8 °F 41.0 °F 100% 29.69 in 10.0 mi NNW 16.1 mph - N/A   Partly Cloudy
1:15 PM 42.8 °F 34.8 °F 41.0 °F 93% 29.69 in 10.0 mi NNW 17.3 mph 23.0 mph N/A   Mostly Cloudy
1:35 PM 42.8 °F 34.5 °F 41.0 °F 93% 29.69 in 10.0 mi NNW 18.4 mph - N/A   Overcast
1:55 PM 42.8 °F 34.5 °F 39.2 °F 87% 29.70 in 10.0 mi NNW 18.4 mph 23.0 mph N/A   Overcast
2:15 PM 44.6 °F 36.1 °F 39.2 °F 81% 29.71 in 10.0 mi NNW 21.9 mph 25.3 mph N/A   Scattered Clouds
2:35 PM 44.6 °F 36.1 °F 39.2 °F 81% 29.72 in 10.0 mi NNW 21.9 mph 28.8 mph N/A   Mostly Cloudy
2:55 PM 42.8 °F 34.0 °F 37.4 °F 81% 29.73 in 10.0 mi NW 20.7 mph 25.3 mph N/A   Overcast
3:15 PM 42.8 °F 35.1 °F 37.4 °F 81% 29.74 in 10.0 mi NNW 16.1 mph 21.9 mph N/A   Mostly Cloudy
4:55 PM 41.0 °F 31.9 °F 35.6 °F 81% 29.81 in 10.0 mi NNW 19.6 mph - N/A   Overcast
5:15 PM 41.0 °F 32.8 °F 39.2 °F 93% 29.82 in 10.0 mi NW 16.1 mph 21.9 mph N/A   Overcast
5:35 PM 41.0 °F 32.8 °F 37.4 °F 87% 29.83 in 10.0 mi NW 16.1 mph 20.7 mph N/A   Mostly Cloudy
5:55 PM 39.2 °F 31.2 °F 37.4 °F 93% 29.84 in 10.0 mi NW 13.8 mph 19.6 mph N/A   Mostly Cloudy
6:15 PM 39.2 °F 32.0 °F 37.4 °F 93% 29.84 in 10.0 mi NW 11.5 mph - N/A   Mostly Cloudy
6:35 PM 39.2 °F 31.6 °F 37.4 °F 93% 29.85 in 10.0 mi NW 12.7 mph - N/A   Overcast
6:55 PM 39.2 °F 33.0 °F 37.4 °F 93% 29.87 in 10.0 mi WNW 9.2 mph - N/A   Mostly Cloudy
7:15 PM 37.4 °F 30.3 °F 35.6 °F 93% 29.88 in 10.0 mi WNW 10.4 mph - N/A   Clear
7:35 PM 37.4 °F 29.8 °F 35.6 °F 93% 29.88 in 10.0 mi WNW 11.5 mph - N/A   Scattered Clouds
7:55 PM 37.4 °F 30.3 °F 35.6 °F 93% 29.89 in 10.0 mi WNW 10.4 mph - N/A   Overcast
8:15 PM 37.4 °F 29.8 °F 37.4 °F 100% 29.89 in 10.0 mi WNW 11.5 mph - N/A   Overcast
8:35 PM 37.4 °F 30.3 °F 37.4 °F 100% 29.90 in 10.0 mi WNW 10.4 mph - N/A   Scattered Clouds
8:55 PM 35.6 °F 28.6 °F 35.6 °F 100% 29.90 in 10.0 mi WNW 9.2 mph - N/A   Partly Cloudy
9:15 PM 35.6 °F 28.0 °F 35.6 °F 100% 29.90 in 10.0 mi WNW 10.4 mph - N/A   Partly Cloudy
9:35 PM 33.8 °F 25.3 °F 33.8 °F 100% 29.90 in 10.0 mi WNW 11.5 mph - N/A   Clear
9:55 PM 35.6 °F 27.1 °F 35.6 °F 100% 29.91 in 10.0 mi WNW 12.7 mph - N/A   Clear
10:15 PM 33.8 °F 25.3 °F 33.8 °F 100% 29.91 in 10.0 mi WNW 11.5 mph - N/A   Scattered Clouds
10:35 PM 33.8 °F 25.3 °F 33.8 °F 100% 29.91 in 10.0 mi WNW 11.5 mph - N/A   Mostly Cloudy
10:55 PM 32.0 °F 23.6 °F 32.0 °F 100% 29.92 in 10.0 mi WNW 10.4 mph - N/A   Partly Cloudy
11:15 PM 32.0 °F 24.2 °F 32.0 °F 100% 29.92 in 10.0 mi WNW 9.2 mph - N/A   Partly Cloudy
11:35 PM 32.0 °F 23.6 °F 32.0 °F 100% 29.92 in 10.0 mi WNW 10.4 mph - N/A   Partly Cloudy
11:55 PM 32.0 °F 24.8 °F 32.0 °F 100% 29.93 in 10.0 mi WNW 8.1 mph - N/A   Clear